Location: East Guldeford
(50.9500°N, 0.7500°E)
Time: 09:28:00
(UTC+00:00)

Ariane Rocket - Pass Details

Date: 12 May 2021
Orbit: 761 x 769 km, 98.7° (Epoch: 16 June)

Event Time Altitude Azimuth Distance (km) Brightness Sun altitude
Rises 20:14:22 0° 173° (S) 3,212 5.8 -5.8°
Reaches altitude 10° 20:16:41 10° 177° (S) 2,291 5.1 -6.1°
Maximum altitude 20:21:41 61° 258° (WSW) 867 3.5 -6.7°
Drops below altitude 10° 20:26:44 10° 339° (NNW) 2,313 6.6 -7.3°
Sets 20:29:05 0° 343° (NNW) 3,245 7.4 -7.5°
